This demonstration page uses our WeatherBlox Daily Observations layout. Learn more.

39.92423, -83.80882

Hourly Observations for July 10, 2018

Temp ( °F °C ) Dew Point ( °F °C ) Humidity (%) Winds ( mph kmh ) Pressure ( in mb ) Visibility ( mi km ) Precip ( " mm )
12:56 am 00:56 Clear 69 20.6 65 18.3 87 87 Calm 30.14 1021 10 16.0934 0 0
1:56 am 01:56 Clear 68 20 65 18.3 90 90 SW 5 7 30.13 1020 10 16.0934 0 0
2:56 am 02:56 Clear 68 20 65 18.3 90 90 W 3 6 30.12 1020 10 16.0934 0 0
3:56 am 03:56 Clear 67 19.4 65 18.3 93 93 Calm 30.11 1020 10 16.0934 0 0
4:56 am 04:56 Clear 66 18.9 64 17.8 93 93 Calm 30.11 1020 10 16.0934 0 0
5:56 am 05:56 Clear 66 18.9 65 18.3 96 96 Calm 30.12 1020 10 16.0934 0 0
6:56 am 06:56 Sunny 68 20 67 19.4 96 96 SSW 3 6 30.11 1020 8 12.87472 0 0
7:56 am 07:56 Sunny 72 22.2 69 20.6 91 91 SW 3 6 30.12 1020 10 16.0934 0 0
8:56 am 08:56 Sunny 79 26.1 71 21.7 77 77 W 7 11 30.11 1020 10 16.0934 0 0
9:56 am 09:56 Sunny 82 27.8 73 22.8 74 74 W 7 11 30.1 1019 10 16.0934 0 0
10:56 am 10:56 Sunny 85 29.4 73 22.8 68 68 WNW 9 15 30.09 1019 10 16.0934 0 0
11:56 am 11:56 Sunny 86 30 70 21.1 59 59 W 7 11 30.09 1019 10 16.0934 0 0
12:56 pm 12:56 Sunny 87 30.6 69 20.6 55 55 NW 10 17 30.08 1019 10 16.0934 0 0
1:56 pm 13:56 Sunny 90 32.2 69 20.6 50 50 W 10 17 30.06 1018 10 16.0934 0 0
2:56 pm 14:56 Sunny 91 32.8 66 18.9 44 44 WNW 7 11 30.02 1017 10 16.0934 0 0
3:56 pm 15:56 Sunny 87 30.6 69 20.6 55 55 WSW 7 11 30.02 1017 10 16.0934 0 0
4:56 pm 16:56 Partly Cloudy with Light Rain 80 26.7 71 21.7 74 74 VRB 6 9 30.03 1017 10 16.0934 0 0.0254
5:17 pm 17:17 Partly Cloudy with Light Rain 75 24 72 22 89 89 ESE 13 20 30 1016 2.5 4.02335 0.18 4.572
5:21 pm 17:21 Partly Cloudy with Light Thunderstorms 75 24 72 22 89 89 NE 12 19 30 1016 10 16.0934 0.18 4.572
5:42 pm 17:42 Sunny 79 26 73 23 84 84 NNE 6 9 30 1016 10 16.0934 0.18 4.572
5:56 pm 17:56 Partly Cloudy with Light Rain 78 25.6 73 22.8 85 85 Calm 30.03 1017 10 16.0934 0.19 4.826
6:37 pm 18:37 Partly Cloudy with Nearby Thunderstorms 77 25 73 23 89 89 NE 6 9 30 1016 9 14.48406 0 0.0254
6:56 pm 18:56 Partly Cloudy with Thunderstorms 76 24.4 73 22.8 91 91 NNW 14 22 30.04 1017 6 9.65604 0.06 1.524
7:45 pm 19:45 Partly Cloudy with Light Rain 75 24 73 23 94 94 SSW 7 11 30 1016 8 12.87472 0.03 0.762
7:56 pm 19:56 Partly Cloudy with Light Rain 75 23.9 73 22.8 94 94 SSW 6 9 30.02 1017 10 16.0934 0.03 0.762
8:56 pm 20:56 Sunny 74 23.3 72 22.2 94 94 N 5 7 30 1016 10 16.0934 0.01 0.254
9:56 pm 21:56 Clear 72 22.2 71 21.7 97 97 NW 3 6 30.01 1016 9 14.48406 0 0
10:56 pm 22:56 Clear 71 21.7 71 21.7 100 100 Calm 30.01 1016 7 11.26538 0 0
11:32 pm 23:32 Mostly Clear with Mist and Fog 70 21 70 21 100 100 NE 5 7 30 1016 2 3.21868 0 0

Powered by AerisWeather